This is the latest recevied weather packets stored in our database for station/object HP1MRA-15. If no packets are shown the sender has not sent any weather packets the latest 10 day(s).
| Time | Temp. | Humidity | Pressure | Rain* | Wind** | Luminosity | Snow |
|---|---|---|---|---|---|---|---|
| 1788127828 | 28.89° C | 73% | 1001.2 hPa | 0 mm | - | - | - |
| 1788127530 | - | - | 1001.3 hPa | 0 mm | - | - | - |
| 1788127231 | 28.89° C | 73% | 1001.6 hPa | 0.25 mm | - | - | - |
| 1788126929 | 28.89° C | 73% | 1001.7 hPa | 0.25 mm | - | - | - |
| 1788126630 | 28.89° C | 74% | 1001.7 hPa | 0.25 mm | - | - | - |
| 1788126331 | 28.89° C | 75% | 1001.8 hPa | 0.25 mm | - | - | - |
| 1788126030 | 28.89° C | 77% | 1001.8 hPa | 0.51 mm | - | - | - |
| 1788126027 | 28.89° C | 77% | 1001.8 hPa | 0.76 mm | - | - | - |
| 1788125731 | 28.89° C | 76% | 1001.6 hPa | 1.02 mm | - | - | - |
| 1788125430 | 28.89° C | 76% | 1001.6 hPa | 2.03 mm | - | - | - |
| 1788125128 | 28.89° C | 74% | 1001.4 hPa | 2.29 mm | - | - | - |
| 1788124830 | 28.33° C | 75% | 1001.3 hPa | 2.79 mm | - | - | - |
| 1788124530 | 28.89° C | 78% | 1001.3 hPa | 3.56 mm | - | - | - |
| 1788124230 | 28.89° C | 77% | 1001.2 hPa | 3.81 mm | - | - | - |
| 1788124228 | 28.89° C | 78% | 1001.2 hPa | 3.81 mm | - | - | - |
| 1788123930 | 28.89° C | 75% | 1001.1 hPa | 3.81 mm | - | - | - |
| 1788123330 | 29.44° C | 70% | 1001.1 hPa | 4.06 mm | - | - | - |
| 1788123327 | 29.44° C | 70% | 1001.2 hPa | 4.06 mm | - | - | - |
| 1788123030 | 29.44° C | 70% | 1001.2 hPa | 5.08 mm | - | - | - |
| 1788122730 | 29.44° C | 70% | 1001.2 hPa | 6.1 mm | - | - | - |
| 1788122430 | 29.44° C | 70% | 1001 hPa | 10.41 mm | - | - | - |
| 1788122427 | 29.44° C | 70% | 1001 hPa | 10.41 mm | - | - | - |
| 1788122129 | 29.44° C | 70% | 1001 hPa | 16 mm | - | - | - |
| 1788121830 | 29.44° C | 69% | 1001 hPa | 20.57 mm | - | - | - |
| 1788121528 | 29.44° C | 69% | 1001.2 hPa | 22.86 mm | - | - | - |
* Rain latest hour (hover to see other rain measurements)
** Current wind speed in m/s (hover to see current wind gust speed)